STARLINK-1666 (46357 NORAD) Tracking and Keplerian Element Data

This shows tracking and keplerian element data for the satellite.

Feedback or suggestion? Click here.




ElementValue
Catalog46357
NameSTARLINK-1666
Epoch Orbit178
Epoch Day268.91668981
Epoch Year2020
RAAN324.5077
Inclination53.0027
Eccentricity0.0001195
Argument of Perigee60.5081
Mean Anonmoly147.0132
Mean Motion15.62782793
Decay Rate-0.00025958
L11 46357U 20062AJ 20268.91668981 -.00025958 00000-0 -27823-3 0 9997
L22 46357 53.0027 324.5077 0001195 60.5081 147.0132 15.62782793 1782

Live tracking and technical data element details for STARLINK-1666 (NORAD 46357). STARLINK-1666 can be tracked NOW for your location showing map with azimuth and elevation plus other details from your city location.

Track the satellite on the map from your city or location and see movement details for azimuth, elevation, latitude, longitude, range, height, and movement on the map or in text.







IsCatalogInMostPopularTable: catalog: 46357, numindb: 4
Update: records affected: 1



GetName: 46357 STARLINK-1666

Hit Count: updated at: Sat, 26 Sep 2020 14:36:14 GMT